Date String (YYYY-MM-DD hh:mm:ss) UTC,Instrument flags,absolute air pressure of the measurement (hPa),sample flow rate (lpm),inlet stack bypass flow (lpm),air temperature of the measurement (°C),ambient temperature measured by the external sensor (°C),aerosol sample conditioner tube jacket temperature (°C),OPC LED temperature (°C),internal box temperature (°C),relative humidity of the measurement (%),span deviation,mass concentration of particles derived from Lorenz-Mie calculation of OPC scattering (μg/m³),mass concentration of particles derived from Lorenz-Mie calculation of OPC scattering (μg/m³),mass concentration of particles derived from Lorenz-Mie calculation of OPC scattering (μg/m³)
DateTimeUTC,F1_M11,P_M11,Q1_M11,Q2_M11,T1_M11,T2_M11,T3_M11,T4_M11,T5_M11,U1_M11,ZSPAN_M11,X2_M11,X0_M11,X1_M11
2023-10-09 04:00:00,SystemResetWarning,0831.5,5.00,000.00,028.8,027.6,000.0,037.1,030.5,11.9,0000.0,0002.53,0008.21,0001.91
2023-10-09 04:01:00,SystemResetWarning,0831.5,4.99,000.00,028.8,027.1,000.0,037.1,030.5,11.9,0000.0,0002.50,0007.82,0001.91
2023-10-09 04:02:00,SystemResetWarning,0831.5,5.00,000.00,028.8,025.1,000.0,037.1,030.3,11.9,0000.0,0002.48,0007.53,0001.90
2023-10-09 04:03:00,SystemResetWarning,0831.5,5.02,000.00,028.7,024.2,000.0,037.0,030.1,12.0,0000.0,0002.47,0007.54,0001.91
2023-10-09 04:04:00,SystemResetWarning,0831.4,5.00,000.00,028.5,024.3,000.0,037.0,029.8,12.0,0000.0,0002.50,0007.60,0001.90
2023-10-09 04:05:00,SystemResetWarning,0831.4,5.00,000.00,028.4,024.6,000.0,037.0,029.8,12.1,0000.0,0002.56,0007.38,0001.91
2023-10-09 04:06:00,SystemResetWarning,0831.5,5.00,000.00,028.4,025.0,000.0,037.0,029.8,12.2,0000.0,0002.58,0007.43,0001.91
2023-10-09 04:07:00,SystemResetWarning,0831.5,5.00,000.00,028.3,025.4,000.0,037.0,029.9,12.2,0000.0,0002.58,0006.55,0001.91
2023-10-09 04:08:00,SystemResetWarning,0831.5,5.00,000.00,028.3,025.7,000.0,036.9,029.9,12.2,0000.0,0002.63,0006.54,0001.91
2023-10-09 04:09:00,SystemResetWarning,0831.5,4.99,000.00,028.3,026.0,000.0,036.9,029.9,12.2,0000.0,0002.59,0006.36,0001.92
2023-10-09 04:10:00,SystemResetWarning,0831.5,4.99,000.00,028.3,026.2,000.0,036.9,029.9,12.2,0000.0,0002.60,0005.92,0001.91
2023-10-09 04:11:00,SystemResetWarning,0831.5,5.00,000.00,028.3,026.4,000.0,036.9,030.0,12.2,0000.0,0002.63,0006.16,0001.90
2023-10-09 04:12:00,SystemResetWarning,0831.4,5.00,000.00,028.3,026.6,000.0,036.9,030.0,12.2,0000.0,0002.62,0005.82,0001.90
2023-10-09 04:13:00,SystemResetWarning,0831.5,5.00,000.00,028.3,026.7,000.0,036.9,030.0,12.2,0000.0,0002.67,0006.13,0001.91
2023-10-09 04:14:00,SystemResetWarning,0831.5,5.00,000.00,028.3,026.8,000.0,036.9,030.1,12.2,0000.0,0002.69,0007.37,0001.92
2023-10-09 04:15:00,SystemResetWarning,0831.5,5.01,000.00,028.4,026.9,000.0,036.9,030.1,12.2,0000.0,0002.67,0007.24,0001.93
2023-10-09 04:16:00,SystemResetWarning,0831.5,5.01,000.00,028.4,027.0,000.0,036.9,030.1,12.2,0000.0,0002.67,0007.29,0001.93
2023-10-09 04:17:00,SystemResetWarning,0831.5,5.00,000.00,028.4,027.0,000.0,036.9,030.1,12.2,0000.0,0002.67,0007.34,0001.94
2023-10-09 04:18:00,SystemResetWarning,0831.5,4.98,000.00,028.4,027.1,000.0,036.9,030.1,12.2,0000.0,0002.68,0007.99,0001.95
2023-10-09 04:19:00,SystemResetWarning,0831.5,5.01,000.00,028.5,027.1,000.0,036.9,030.2,12.2,0000.0,0002.66,0008.53,0001.96
2023-10-09 04:20:00,SystemResetWarning,0831.5,5.00,000.00,028.5,027.2,000.0,036.9,030.2,12.2,0000.0,0002.64,0008.84,0001.96
2023-10-09 04:21:00,SystemResetWarning,0831.5,5.01,000.00,028.5,027.2,000.0,036.9,030.2,12.2,0000.0,0002.70,0009.23,0001.98
2023-10-09 04:22:00,SystemResetWarning,0831.5,5.00,000.00,028.5,027.3,000.0,037.0,030.3,12.2,0000.0,0002.69,0009.50,0002.02
2023-10-09 04:23:00,SystemResetWarning,0831.5,4.99,000.00,028.6,027.3,000.0,037.0,030.3,12.1,0000.0,0002.71,0009.76,0002.03
2023-10-09 04:24:00,SystemResetWarning,0831.5,5.00,000.00,028.6,027.3,000.0,037.0,030.3,12.2,0000.0,0002.70,0010.15,0002.03
2023-10-09 04:25:00,SystemResetWarning,0831.5,4.99,000.00,028.6,027.4,000.0,037.0,030.3,12.2,0000.0,0002.71,0009.61,0002.03
2023-10-09 04:26:00,SystemResetWarning,0831.5,5.00,000.00,028.6,027.4,000.0,037.0,030.3,12.1,0000.0,0002.77,0009.68,0002.03
2023-10-09 04:27:00,SystemResetWarning,0831.5,5.00,000.00,028.6,027.4,000.0,037.0,030.4,12.1,0000.0,0002.74,0009.55,0002.03
2023-10-09 04:28:00,SystemResetWarning,0831.5,5.00,000.00,028.7,027.4,000.0,037.0,030.4,12.1,0000.0,0002.77,0009.57,0002.03
2023-10-09 04:29:00,SystemResetWarning,0831.5,5.00,000.00,028.7,027.5,000.0,037.1,030.4,12.1,0000.0,0002.77,0008.95,0002.04
2023-10-09 04:30:00,SystemResetWarning,0831.5,5.00,000.00,028.7,027.5,000.0,037.1,030.4,12.1,0000.0,0002.78,0008.58,0002.06
2023-10-09 04:31:00,SystemResetWarning,0831.6,5.00,000.00,028.7,027.5,000.0,037.1,030.4,12.1,0000.0,0002.83,0008.66,0002.08
2023-10-09 04:32:00,SystemResetWarning,0831.6,5.00,000.00,028.7,027.5,000.0,037.1,030.5,12.1,0000.0,0002.86,0008.60,0002.10
2023-10-09 04:33:00,SystemResetWarning,0831.6,5.00,000.00,028.8,027.5,000.0,037.1,030.5,12.1,0000.0,0002.84,0008.28,0002.09
2023-10-09 04:34:00,SystemResetWarning,0831.5,5.00,000.00,028.8,027.6,000.0,037.2,030.5,12.1,0000.0,0002.81,0007.90,0002.09
2023-10-09 04:35:00,SystemResetWarning,0831.6,5.00,000.00,028.8,027.6,000.0,037.2,030.5,12.1,0000.0,0002.87,0007.51,0002.10
2023-10-09 04:36:00,SystemResetWarning,0831.6,5.00,000.00,028.8,027.6,000.0,037.2,030.5,12.1,0000.0,0002.90,0007.25,0002.11
2023-10-09 04:37:00,SystemResetWarning,0831.6,5.00,000.00,028.9,027.6,000.0,037.2,030.5,12.1,0000.0,0002.87,0006.86,0002.12
2023-10-09 04:38:00,SystemResetWarning,0831.6,5.00,000.00,028.9,027.7,000.0,037.2,030.5,12.1,0000.0,0002.90,0006.88,0002.14
2023-10-09 04:39:00,SystemResetWarning,0831.6,5.00,000.00,028.9,027.7,000.0,037.3,030.5,12.1,0000.0,0002.98,0007.29,0002.18
2023-10-09 04:40:00,SystemResetWarning,0831.6,5.00,000.00,028.9,027.7,000.0,037.3,030.6,12.1,0000.0,0003.05,0007.54,0002.19
2023-10-09 04:41:00,SystemResetWarning,0831.6,5.00,000.00,028.9,027.3,000.0,037.3,030.6,12.1,0000.0,0003.08,0007.51,0002.18
2023-10-09 04:42:00,SystemResetWarning,0831.6,5.00,000.00,028.9,025.2,000.0,037.2,030.4,12.2,0000.0,0003.07,0007.31,0002.18
2023-10-09 04:43:00,SystemResetWarning,0831.6,5.00,000.00,028.8,024.4,000.0,037.1,030.2,12.3,0000.0,0003.04,0006.25,0002.17
2023-10-09 04:44:00,SystemResetWarning,0831.6,5.01,000.00,028.6,024.4,000.0,037.1,030.0,12.4,0000.0,0003.03,0006.59,0002.17
2023-10-09 04:45:00,SystemResetWarning,0831.6,5.00,000.00,028.5,024.8,000.0,037.1,029.9,12.5,0000.0,0003.09,0007.44,0002.18
2023-10-09 04:46:00,SystemResetWarning,0831.5,4.99,000.00,028.5,025.2,000.0,037.1,029.9,12.5,0000.0,0003.08,0007.23,0002.21
2023-10-09 04:47:00,SystemResetWarning,0831.6,5.00,000.00,028.4,025.5,000.0,037.0,029.9,12.5,0000.0,0003.07,0007.56,0002.21
2023-10-09 04:48:00,SystemResetWarning,0831.5,5.01,000.00,028.4,025.8,000.0,037.0,030.0,12.5,0000.0,0003.08,0007.86,0002.19
2023-10-09 04:49:00,SystemResetWarning,0831.5,5.00,000.00,028.4,026.1,000.0,037.0,030.0,12.6,0000.0,0003.07,0008.48,0002.17
2023-10-09 04:50:00,SystemResetWarning,0831.6,4.99,000.00,028.4,026.3,000.0,037.0,030.0,12.6,0000.0,0002.97,0008.71,0002.15
2023-10-09 04:51:00,SystemResetWarning,0831.6,5.00,000.00,028.4,026.5,000.0,037.0,030.1,12.6,0000.0,0002.94,0008.79,0002.14
2023-10-09 04:52:00,SystemResetWarning,0831.6,5.00,000.00,028.4,026.6,000.0,037.0,030.1,12.6,0000.0,0002.90,0008.74,0002.13
2023-10-09 04:53:00,SystemResetWarning,0831.5,5.00,000.00,028.4,026.7,000.0,037.0,030.1,12.6,0000.0,0002.88,0008.74,0002.12
2023-10-09 04:54:00,SystemResetWarning,0831.5,5.00,000.00,028.4,026.8,000.0,037.0,030.1,12.6,0000.0,0002.86,0008.79,0002.11
2023-10-09 04:55:00,SystemResetWarning,0831.5,5.00,000.00,028.5,026.9,000.0,037.0,030.2,12.6,0000.0,0002.82,0008.87,0002.11
2023-10-09 04:56:00,SystemResetWarning,0831.5,5.00,000.00,028.5,027.0,000.0,037.0,030.2,12.6,0000.0,0002.82,0008.45,0002.10
2023-10-09 04:57:00,SystemResetWarning,0831.5,5.01,000.00,028.5,027.0,000.0,037.0,030.2,12.6,0000.0,0002.82,0008.48,0002.09
2023-10-09 04:58:00,SystemResetWarning,0831.5,4.99,000.00,028.5,027.1,000.0,037.0,030.2,12.6,0000.0,0002.81,0008.23,0002.07
2023-10-09 04:59:00,SystemResetWarning,0831.5,4.99,000.00,028.5,027.1,000.0,037.0,030.2,12.6,0000.0,0002.83,0008.27,0002.07
